When you browse on this site, cookies collect data to enhance your experience and personalize the content and advertising you see.
Visit our Privacy Policy to learn more. By continuing to use the site, you agree to this use of cookies and data.
  • In Hungary
  • List of Countries
  • For 7 days
  • Water Temperature
  • Satellite Maps
  • Weather Map
  • News
  • Weather Widgets
  • user-avatar
    Login

    Hourly Weather Uyna

    Today, 18 March, Monday

    Time Temperature Precipitation Wind Pressure Humidity
    00:00 +19°C° 0 mm 0 mps 741 mmHg 98%
    01:00 +20°C° 0 mm 0 mps 741 mmHg 97%
    02:00 +20°C° 0 mm 0 mps 741 mmHg 96%
    03:00 +21°C° 0 mm 0 mps 741 mmHg 95%
    04:00 +20°C° 0 mm 0 mps 741 mmHg 97%
    05:00 +19°C° 0 mm 0 mps 741 mmHg 98%
    06:00 +19°C° 0 mm 0 mps 741 mmHg 99%
    07:00 +24°C° 0 mm 1 mps 741 mmHg 87%
    08:00 +26°C° 0 mm 1 mps 742 mmHg 74%
    09:00 +28°C° 0 mm 1 mps 742 mmHg 62%
    10:00 +30°C° 0 mm 1 mps 741 mmHg 55%
    11:00 +31°C° 0 mm 2 mps 741 mmHg 48%
    12:00 +34°C° 0 mm 2 mps 741 mmHg 41%
    13:00 +32°C° 0 mm 2 mps 740 mmHg 45%
    14:00 +32°C° 0 mm 2 mps 739 mmHg 49%
    15:00 +31°C° 0 mm 2 mps 738 mmHg 53%
    16:00 +29°C° 0.1 mm 2 mps 739 mmHg 60%
    17:00 +28°C° 0.1 mm 1 mps 739 mmHg 67%
    18:00 +26°C° 0.1 mm 1 mps 739 mmHg 74%
    19:00 +25°C° 0 mm 1 mps 740 mmHg 80%
    20:00 +23°C° 0 mm 1 mps 740 mmHg 86%
    21:00 +20°C° 0 mm 0 mps 741 mmHg 92%
    22:00 +20°C° 0 mm 0 mps 741 mmHg 94%
    23:00 +19°C° 0 mm 0 mps 741 mmHg 96%

    Tomorrow, 19 March, Tuesday

    Time Temperature Precipitation Wind Pressure Humidity
    00:00 +19°C° 0 mm 0 mps 741 mmHg 98%
    01:00 +19°C° 0 mm 0 mps 741 mmHg 98%
    02:00 +19°C° 0 mm 0 mps 740 mmHg 97%
    03:00 +19°C° 0 mm 0 mps 740 mmHg 97%
    04:00 +19°C° 0 mm 0 mps 740 mmHg 97%
    05:00 +19°C° 0 mm 0 mps 741 mmHg 97%
    06:00 +19°C° 0 mm 0 mps 741 mmHg 98%
    07:00 +21°C° 0 mm 0 mps 741 mmHg 87%
    08:00 +23°C° 0 mm 0 mps 742 mmHg 77%
    09:00 +27°C° 0 mm 1 mps 742 mmHg 66%
    10:00 +29°C° 0 mm 1 mps 741 mmHg 56%
    11:00 +31°C° 0 mm 1 mps 741 mmHg 45%
    12:00 +34°C° 0 mm 1 mps 741 mmHg 35%
    13:00 +34°C° 0 mm 1 mps 740 mmHg 33%
    14:00 +34°C° 0 mm 1 mps 739 mmHg 32%
    15:00 +35°C° 0 mm 1 mps 738 mmHg 30%
    16:00 +32°C° 0 mm 1 mps 738 mmHg 37%
    17:00 +30°C° 0 mm 1 mps 739 mmHg 45%
    18:00 +28°C° 0 mm 1 mps 739 mmHg 52%
    19:00 +27°C° 0 mm 1 mps 739 mmHg 58%
    20:00 +25°C° 0 mm 1 mps 740 mmHg 64%
    21:00 +24°C° 0 mm 1 mps 741 mmHg 70%
    22:00 +23°C° 0 mm 1 mps 741 mmHg 77%
    23:00 +23°C° 0 mm 1 mps 741 mmHg 85%

    Day after tomorrow, 20 March, Wednesday

    Time Temperature Precipitation Wind Pressure Humidity
    00:00 +20°C° 0 mm 0 mps 741 mmHg 92%
    01:00 +20°C° 0 mm 0 mps 741 mmHg 94%
    02:00 +19°C° 0 mm 0 mps 740 mmHg 96%
    03:00 +19°C° 0 mm 0 mps 740 mmHg 98%
    04:00 +19°C° 0 mm 0 mps 740 mmHg 98%
    05:00 +19°C° 0 mm 0 mps 741 mmHg 98%
    06:00 +18°C° 0 mm 0 mps 741 mmHg 99%
    07:00 +21°C° 0 mm 0 mps 741 mmHg 84%
    08:00 +26°C° 0 mm 1 mps 742 mmHg 69%
    09:00 +29°C° 0 mm 1 mps 742 mmHg 54%
    10:00 +31°C° 0 mm 1 mps 742 mmHg 47%
    11:00 +34°C° 0 mm 2 mps 741 mmHg 39%
    12:00 +36°C° 0 mm 2 mps 741 mmHg 32%
    13:00 +36°C° 0 mm 2 mps 740 mmHg 31%
    14:00 +36°C° 0 mm 2 mps 739 mmHg 29%
    15:00 +36°C° 0 mm 2 mps 738 mmHg 28%
    16:00 +34°C° 0 mm 2 mps 738 mmHg 34%
    17:00 +31°C° 0 mm 1 mps 739 mmHg 40%
    18:00 +28°C° 0 mm 1 mps 739 mmHg 45%
    19:00 +27°C° 0 mm 1 mps 740 mmHg 53%
    20:00 +25°C° 0 mm 1 mps 741 mmHg 60%
    21:00 +24°C° 0 mm 1 mps 741 mmHg 67%
    22:00 +23°C° 0 mm 1 mps 742 mmHg 74%
    23:00 +20°C° 0 mm 0 mps 742 mmHg 81%

    21 March, Thursday

    Time Temperature Precipitation Wind Pressure Humidity
    00:00 +19°C° 0 mm 0 mps 742 mmHg 88%
    01:00 +18°C° 0 mm 0 mps 741 mmHg 91%
    02:00 +18°C° 0 mm 0 mps 741 mmHg 94%
    03:00 +17°C° 0 mm 0 mps 740 mmHg 98%
    04:00 +17°C° 0 mm 0 mps 741 mmHg 98%
    05:00 +17°C° 0 mm 0 mps 741 mmHg 98%
    06:00 +17°C° 0 mm 0 mps 741 mmHg 98%
    07:00 +20°C° 0 mm 0 mps 742 mmHg 85%
    08:00 +25°C° 0 mm 1 mps 742 mmHg 72%
    09:00 +28°C° 0 mm 1 mps 743 mmHg 59%
    10:00 +30°C° 0 mm 1 mps 742 mmHg 51%
    11:00 +32°C° 0 mm 2 mps 741 mmHg 42%
    12:00 +35°C° 0 mm 2 mps 741 mmHg 34%
    13:00 +35°C° 0 mm 2 mps 740 mmHg 33%
    14:00 +36°C° 0 mm 2 mps 739 mmHg 33%
    15:00 +36°C° 0 mm 2 mps 738 mmHg 32%
    16:00 +34°C° 0 mm 2 mps 738 mmHg 39%
    17:00 +32°C° 0 mm 2 mps 739 mmHg 45%
    18:00 +30°C° 0 mm 2 mps 739 mmHg 51%
    19:00 +28°C° 0.1 mm 1 mps 740 mmHg 62%
    20:00 +26°C° 0.1 mm 1 mps 741 mmHg 73%
    21:00 +24°C° 0.1 mm 1 mps 742 mmHg 84%
    22:00 +24°C° 0 mm 1 mps 742 mmHg 89%
    23:00 +21°C° 0 mm 0 mps 742 mmHg 93%

    22 March, Friday

    Time Temperature Precipitation Wind Pressure Humidity
    00:00 +20°C° 0 mm 0 mps 742 mmHg 98%
    01:00 +20°C° 0 mm 0 mps 741 mmHg 98%
    02:00 +19°C° 0 mm 0 mps 741 mmHg 98%
    03:00 +19°C° 0 mm 0 mps 741 mmHg 99%
    04:00 +19°C° 0 mm 0 mps 741 mmHg 99%
    05:00 +19°C° 0 mm 0 mps 742 mmHg 99%
    06:00 +19°C° 0 mm 0 mps 742 mmHg 99%
    07:00 +23°C° 0 mm 1 mps 742 mmHg 87%
    08:00 +26°C° 0 mm 1 mps 743 mmHg 76%
    09:00 +28°C° 0 mm 2 mps 743 mmHg 64%
    10:00 +30°C° 0 mm 2 mps 742 mmHg 58%
    11:00 +31°C° 0 mm 2 mps 742 mmHg 51%
    12:00 +34°C° 0 mm 2 mps 741 mmHg 45%
    13:00 +32°C° 0 mm 2 mps 740 mmHg 46%
    14:00 +32°C° 0 mm 2 mps 740 mmHg 48%
    15:00 +31°C° 0 mm 2 mps 739 mmHg 49%
    16:00 +30°C° 0 mm 2 mps 739 mmHg 53%
    17:00 +29°C° 0 mm 1 mps 740 mmHg 58%
    18:00 +27°C° 0 mm 1 mps 740 mmHg 62%
    19:00 +26°C° 0 mm 1 mps 741 mmHg 67%
    20:00 +25°C° 0 mm 1 mps 742 mmHg 71%
    21:00 +24°C° 0 mm 1 mps 742 mmHg 75%
    22:00 +23°C° 0 mm 1 mps 742 mmHg 83%
    23:00 +22°C° 0 mm 1 mps 742 mmHg 91%

    23 March, Saturday

    Time Temperature Precipitation Wind Pressure Humidity
    00:00 +19°C° 0 mm 0 mps 742 mmHg 98%
    01:00 +19°C° 0 mm 0 mps 741 mmHg 98%
    02:00 +19°C° 0 mm 0 mps 741 mmHg 98%
    03:00 +19°C° 0 mm 0 mps 741 mmHg 98%
    04:00 +19°C° 0 mm 0 mps 741 mmHg 98%
    05:00 +19°C° 0 mm 0 mps 741 mmHg 97%
    06:00 +19°C° 0 mm 0 mps 742 mmHg 97%
    07:00 +23°C° 0 mm 1 mps 742 mmHg 89%
    08:00 +24°C° 0 mm 1 mps 742 mmHg 81%
    09:00 +26°C° 0 mm 1 mps 743 mmHg 74%
    10:00 +27°C° 0 mm 1 mps 742 mmHg 67%
    11:00 +29°C° 0 mm 1 mps 741 mmHg 60%
    12:00 +31°C° 0 mm 1 mps 741 mmHg 52%
    13:00 +31°C° 0 mm 1 mps 740 mmHg 50%
    14:00 +32°C° 0 mm 1 mps 739 mmHg 48%
    15:00 +34°C° 0 mm 2 mps 739 mmHg 45%
    16:00 +31°C° 0 mm 2 mps 739 mmHg 54%
    17:00 +29°C° 0 mm 1 mps 739 mmHg 63%
    18:00 +27°C° 0 mm 1 mps 740 mmHg 72%
    19:00 +26°C° 0.2 mm 1 mps 741 mmHg 80%
    20:00 +25°C° 0.2 mm 1 mps 741 mmHg 89%
    21:00 +23°C° 0.2 mm 1 mps 742 mmHg 97%
    22:00 +23°C° 0 mm 1 mps 742 mmHg 97%
    23:00 +20°C° 0 mm 0 mps 742 mmHg 98%
    Show more